Llanes en Asturias

latitud = 43° 25' 13''N | longitud = 004° 44' 53''W
10 metros sobre el nivel del mar | datos mensuales

Fecha, hora, temperatura, viento dirección y velocidad, humedad y presión.

  • 16-08-2018 02:00:00 | 20.60°C | Oeste |4.00 km/h | 81.00% | 1016.20 hPa
  • 16-08-2018 01:00:00 | 20.50°C | Sudoeste |7.00 km/h | 81.00% | 1016.40 hPa
  • 16-08-2018 00:00:00 | 20.70°C | Calma |0.00 km/h | 79.00% | 1016.10 hPa
  • 15-08-2018 23:00:00 | 21.10°C | Sur |4.00 km/h | 79.00% | 1016.20 hPa
  • 15-08-2018 22:00:00 | 21.40°C | Sudeste |6.00 km/h | 79.00% | 1016.10 hPa
  • 15-08-2018 21:00:00 | 21.60°C | Sudeste |11.00 km/h | 78.00% | 1015.80 hPa
  • 15-08-2018 20:00:00 | 21.90°C | Este |16.00 km/h | 77.00% | 1015.90 hPa
  • 15-08-2018 19:00:00 | 22.10°C | Este |22.00 km/h | 75.00% | 1016.10 hPa
  • 15-08-2018 18:00:00 | 22.60°C | Este |22.00 km/h | 74.00% | 1016.30 hPa
  • 15-08-2018 17:00:00 | 22.80°C | Este |19.00 km/h | 72.00% | 1016.80 hPa
  • 15-08-2018 16:00:00 | 22.70°C | Este |25.00 km/h | 71.00% | 1017.20 hPa
  • 15-08-2018 15:00:00 | 23.50°C | Este |23.00 km/h | 70.00% | 1017.50 hPa
  • 15-08-2018 14:00:00 | 23.50°C | Este |26.00 km/h | 68.00% | 1017.90 hPa
  • 15-08-2018 13:00:00 | 23.40°C | Este |26.00 km/h | 69.00% | 1018.00 hPa
  • 15-08-2018 12:00:00 | 23.30°C | Este |26.00 km/h | 67.00% | 1017.90 hPa
  • 15-08-2018 11:00:00 | 22.80°C | Este |24.00 km/h | 65.00% | 1018.10 hPa
  • 15-08-2018 10:00:00 | 22.50°C | Este |24.00 km/h | 59.00% | 1018.30 hPa
  • 15-08-2018 09:00:00 | 21.10°C | Sudeste |19.00 km/h | 60.00% | 1018.50 hPa
  • 15-08-2018 08:00:00 | 19.80°C | Sudeste |13.00 km/h | 66.00% | 1018.70 hPa
  • 15-08-2018 07:00:00 | 19.50°C | Sudeste |12.00 km/h | 66.00% | 1018.80 hPa
  • 15-08-2018 06:00:00 | 19.30°C | Sudeste |12.00 km/h | 67.00% | 1019.10 hPa
  • 15-08-2018 05:00:00 | 19.40°C | Sudeste |18.00 km/h | 74.00% | 1019.60 hPa
  • 15-08-2018 04:00:00 | 19.80°C | Este |14.00 km/h | 71.00% | 1020.10 hPa
  • 15-08-2018 03:00:00 | 19.80°C | Sudeste |13.00 km/h | 68.00% | 1020.40 hPa